Stations météo

réclame
Mon MeteoGroup
Feldberg/Mecklenburg, Allemagne (10282): Température de l'air & dewpoint: 17.07.2018 09:00:00 - 23.07.2018 09:00:00 (CEST)Feldberg/Mecklenburg, Allemagne (10282): Température de l'air 5cm & Température de l'air -5cm: 17.07.2018 09:00:00 - 23.07.2018 09:00:00 (CEST)Feldberg/Mecklenburg, Allemagne (10282): Température de l'air -20cm & Température de l'air -100cm: 17.07.2018 09:00:00 - 23.07.2018 09:00:00 (CEST)Feldberg/Mecklenburg, Allemagne (10282): Vitesse du vent & gusts: 17.07.2018 09:00:00 - 23.07.2018 09:00:00 (CEST)Feldberg/Mecklenburg, Allemagne (10282): Direction du vent: 17.07.2018 09:00:00 - 23.07.2018 09:00:00 (CEST)Feldberg/Mecklenburg, Allemagne (10282): reduced air pressure: 17.07.2018 09:00:00 - 23.07.2018 09:00:00 (CEST)Feldberg/Mecklenburg, Allemagne (10282): visibility: 17.07.2018 09:00:00 - 23.07.2018 09:00:00 (CEST)Feldberg/Mecklenburg, Allemagne (10282): Ensoleillement: 17.07.2018 09:00:00 - 23.07.2018 09:00:00 (CEST)Feldberg/Mecklenburg, Allemagne (10282): Quantités de précipitations: 17.07.2018 09:00:00 - 23.07.2018 09:00:00 (CEST)
Date & Time tt [°C] td [°C] tt 5cm [°C] tt -5cm [°C] tt -20cm [°C] tt -100cm [°C] ff [km/h] ff [knt] fx [km/h] fx [knt] dd ppp [hPa] vv [km] sd [min] rr [mm]
23.07.2018 09:00:00 20,2 15,7 23,8 23,3 21,9 19,3 12 7 21 11 WNW 1015,1 18 60 0,0
23.07.2018 08:00:00 18,6 15,3 20,9 20,9 22,0 19,2 13 7 22 12 WNW 1014,9 13 60 0,0
23.07.2018 07:00:00 17,3 14,8 17,8 19,5 22,3 19,2 9 5 19 10 WNW 1014,9 13 32 0,0
23.07.2018 06:00:00 16,6 14,9 15,8 19,3 22,7 19,2 9 5 15 8 WNW 1014,6 11 0 0,0
23.07.2018 05:00:00 17,0 15,4 15,6 19,6 23,1 19,2 7 4 16 8 WNW 1014,4 10 0 0,0
23.07.2018 04:00:00 16,5 15,7 15,3 20,0 23,6 19,2 8 5 11 6 WNW 1014,1 7 0 0,0
23.07.2018 03:00:00 15,5 14,1 14,6 20,7 24,1 19,2 7 4 10 6 W 1014,1 8 0 0,0
23.07.2018 02:00:00 15,7 13,9 14,2 21,4 24,6 19,2 5 3 11 6 SW 1014,0 11 0 0,0
23.07.2018 01:00:00 16,0 13,7 14,4 22,2 25,1 19,2 5 3 9 5 W 1013,9 14 0 0,0
23.07.2018 00:00:00 15,7 13,2 14,6 23,3 25,7 19,2 3 1 7 4 W 1014,0 13 0 0,0
22.07.2018 23:00:00 17,9 14,0 16,7 24,5 26,2 19,2 7 4 13 7 W 1013,7 19 0 0,0
22.07.2018 22:00:00 19,3 14,5 17,8 26,1 26,7 19,2 7 4 13 7 W 1013,4 18 0 0,0
22.07.2018 21:00:00 21,2 14,5 20,5 27,8 27,0 19,2 6 4 11 6 W 1012,6 19 3 0,0
22.07.2018 20:00:00 24,3 13,4 24,3 29,8 27,1 19,2 8 5 18 10 WSW 1012,1 23 35 0,0
22.07.2018 19:00:00 25,9 13,8 28,1 31,7 27,0 19,2 13 7 21 12 SW 1011,9 23 55 0,0
22.07.2018 18:00:00 26,4 12,8 29,7 32,5 26,8 19,2 11 6 20 11 SSW 1012,0 28 22 0,0
22.07.2018 17:00:00 26,6 12,0 29,7 35,0 26,1 19,2 11 6 25 13 SSW 1012,1 22 59 0,0
22.07.2018 16:00:00 26,7 10,9 31,4 34,7 25,4 19,1 9 5 23 12 S 1012,0 23 49 0,0
22.07.2018 15:00:00 26,8 11,5 31,2 34,5 24,5 19,1 12 7 23 12 SSW 1012,3 24 43 0,0
22.07.2018 14:00:00 25,6 11,7 30,3 32,1 23,7 19,1 13 7 21 11 WSW 1012,7 26 26 0,0
22.07.2018 13:00:00 24,7 11,7 28,1 29,7 23,0 19,1 6 3 17 9 WSW 1012,8 23 4 0,0
22.07.2018 12:00:00 24,3 10,4 27,8 28,6 22,4 19,1 8 5 20 11 SW 1012,9 25 12 0,0
22.07.2018 11:00:00 23,8 9,8 27,3 26,5 21,9 19,1 9 5 16 8 SSW 1012,9 28 24 0,0
22.07.2018 10:00:00 22,4 10,6 24,0 23,9 21,6 19,1 6 3 14 7 SSE 1012,9 25 14 0,0
22.07.2018 09:00:00 21,2 10,0 23,4 21,7 21,5 19,1 8 4 12 6 S 1012,9 26 3 0,0
22.07.2018 08:00:00 20,1 10,7 21,2 20,4 21,6 19,1 4 2 7 4 WSW 1012,7 24 2 0,0
22.07.2018 07:00:00 17,7 11,9 17,7 19,2 21,9 19,1 2 1 10 6 SSE 1012,6 20 15 0,0
22.07.2018 06:00:00 14,6 11,3 13,7 18,9 22,2 19,0 9 5 12 7 W 1012,8 17 0 0,0
22.07.2018 05:00:00 14,8 12,6 13,9 19,5 22,6 19,0 3 1 6 4 WNW 1012,6 18 0 0,0
22.07.2018 04:00:00 14,6 12,3 13,8 19,9 23,0 19,0 2 1 4 2 WNW 1012,5 18 0 0,0
22.07.2018 03:00:00 15,2 12,8 14,6 20,5 23,5 19,0 2 1 3 2 NNE 1012,4 15 0 0,0
22.07.2018 02:00:00 15,4 12,3 14,9 20,9 24,0 19,0 3 2 4 2 N 1012,5 17 0 0,0
22.07.2018 01:00:00 15,2 12,3 14,7 21,4 24,5 19,0 3 2 4 2 N 1012,6 22 0 0,0
22.07.2018 00:00:00 14,2 11,6 12,7 22,2 25,1 19,0 3 1 6 4 N 1012,6 16 0 0,0
21.07.2018 23:00:00 15,7 11,1 14,4 23,5 25,7 19,0 6 3 10 5 ENE 1012,5 17 0 0,0
21.07.2018 22:00:00 18,8 11,6 16,8 25,0 26,3 19,0 8 4 11 6 E 1012,1 21 0 0,0
21.07.2018 21:00:00 20,7 11,9 19,4 26,9 26,7 19,0 9 5 16 9 ENE 1011,8 23 0 0,0
21.07.2018 20:00:00 22,9 11,9 22,8 29,2 26,9 19,0 12 6 18 10 E 1011,6 26 28 0,0
21.07.2018 19:00:00 24,0 10,7 24,6 30,8 27,0 19,0 9 5 16 8 NNE 1011,5 25 23 0,0
21.07.2018 18:00:00 25,4 8,1 28,9 32,9 26,7 19,0 6 3 21 11 NW 1011,9 26 38 0,0
21.07.2018 17:00:00 25,9 8,7 29,6 34,5 26,1 19,0 9 5 20 11 WNW 1011,8 24 59 0,0
21.07.2018 16:00:00 25,7 9,1 31,2 34,6 25,4 19,0 8 4 20 11 NNE 1011,7 27 34 0,0
21.07.2018 15:00:00 24,6 9,3 28,7 34,4 24,6 19,0 7 4 19 11 NNW 1012,1 32 55 0,0
21.07.2018 14:00:00 24,3 8,8 30,7 33,7 23,6 19,0 10 6 27 14 NNE 1012,5 27 57 0,0
21.07.2018 13:00:00 23,8 8,2 29,0 32,7 22,5 19,0 9 5 21 12 NE 1012,8 24 60 0,0
21.07.2018 12:00:00 23,1 9,0 28,9 30,7 21,6 19,0 12 6 19 11 NNE 1013,2 25 60 0,0
21.07.2018 11:00:00 22,0 9,4 25,1 27,4 20,8 19,0 7 4 18 10 E 1013,2 26 56 0,0
21.07.2018 10:00:00 21,8 10,0 27,7 24,6 20,2 19,0 10 6 18 10 NNE 1013,4 18 60 0,0
21.07.2018 09:00:00 20,4 12,0 23,7 21,1 20,0 19,0 8 4 13 7 NNE 1013,2 28 46 0,0
21.07.2018 08:00:00 18,4 11,2 20,9 18,7 20,0 19,0 5 3 10 5 NNW 1013,1 30 59 0,0
21.07.2018 07:00:00 16,8 12,5 16,4 16,6 20,3 18,9 0 0 3 2 N 1013,1 20 47 0,0
21.07.2018 06:00:00 11,0 9,3 9,3 15,8 20,8 18,9 3 2 5 3 WNW 1013,4 21 0 0,0
21.07.2018 05:00:00 11,0 9,2 8,3 16,2 21,3 18,9 3 2 6 3 WSW 1013,6 22 0 0,0
21.07.2018 04:00:00 10,8 9,0 8,2 16,9 21,9 18,9 5 3 7 4 WNW 1013,6 23 0 0,0
21.07.2018 03:00:00 11,4 9,1 8,8 17,6 22,5 18,9 0 0 8 5 N 1013,4 26 0 0,0
21.07.2018 02:00:00 12,5 9,2 9,7 18,5 23,1 18,9 8 4 10 5 NNW 1013,4 31 0 0,0
21.07.2018 01:00:00 10,9 8,7 9,0 19,4 23,8 18,9 5 3 8 4 NNW 1014,0 27 0 0,0
21.07.2018 00:00:00 11,2 8,9 9,7 20,6 24,5 18,9 4 2 7 4 NNW 1014,0 28 0 0,0
20.07.2018 23:00:00 12,8 9,3 10,9 22,1 25,2 18,9 5 3 8 5 NNW 1013,9 29 0 0,0
20.07.2018 22:00:00 14,0 8,8 12,3 23,9 25,8 18,9 4 2 10 5 NNW 1013,5 31 0 0,0
20.07.2018 21:00:00 19,8 7,0 17,9 26,0 26,2 18,9 7 4 18 10 NNW 1013,2 38 17 0,0
20.07.2018 20:00:00 22,2 5,7 23,2 28,3 26,5 19,0 12 7 27 14 NNW 1013,2 33 60 0,0
20.07.2018 19:00:00 23,6 5,4 26,0 30,5 26,5 19,0 13 7 26 14 NW 1012,9 28 60 0,0
20.07.2018 18:00:00 24,6 4,6 27,8 32,8 26,2 19,0 16 9 32 18 WNW 1012,9 45 60 0,0
20.07.2018 17:00:00 24,8 6,7 29,1 34,0 25,7 19,0 14 7 36 19 WNW 1012,9 23 60 0,0
20.07.2018 16:00:00 25,0 8,9 29,3 34,4 24,9 19,0 20 11 40 22 W 1013,5 19 60 0,0
20.07.2018 15:00:00 24,3 8,4 29,3 34,5 24,0 19,0 26 14 40 22 W 1014,0 18 60 0,0
20.07.2018 14:00:00 24,0 8,6 29,5 33,9 22,9 19,0 19 10 31 17 W 1014,1 23 60 0,0
20.07.2018 13:00:00 23,2 9,4 28,4 32,3 21,8 19,0 18 10 34 18 W 1014,4 31 59 0,0
20.07.2018 12:00:00 22,6 10,3 27,7 29,9 20,8 19,0 11 6 22 12 WNW 1014,7 31 59 0,0
20.07.2018 11:00:00 21,6 8,8 26,0 27,0 20,0 19,0 17 9 29 16 W 1015,1 27 60 0,0
20.07.2018 10:00:00 21,3 10,1 25,7 23,9 19,4 19,0 13 7 23 12 NNW 1015,3 22 60 0,0
20.07.2018 09:00:00 19,0 12,8 23,0 20,7 19,1 19,0 6 3 17 9 NW 1015,3 19 60 0,0
20.07.2018 08:00:00 17,1 12,9 19,5 17,7 19,1 19,0 13 7 19 11 NW 1015,5 19 60 0,0
20.07.2018 07:00:00 15,8 12,0 16,5 15,7 19,3 19,0 9 5 16 9 NW 1015,6 22 54 0,0
20.07.2018 06:00:00 13,7 11,0 12,1 15,0 19,7 19,0 8 4 12 7 NW 1015,8 25 3 0,0
20.07.2018 05:00:00 14,5 10,7 12,4 15,2 20,1 19,0 9 5 15 8 NW 1015,9 30 0 0,0
20.07.2018 04:00:00 13,2 9,8 10,4 15,5 20,6 19,0 8 4 11 6 WNW 1016,0 26 0 0,0
20.07.2018 03:00:00 12,1 9,7 10,0 16,2 21,1 19,0 4 2 6 3 W 1016,3 24 0 0,0
20.07.2018 02:00:00 12,4 10,2 9,5 16,9 21,7 19,0 5 3 8 4 WNW 1016,4 25 0 0,0
20.07.2018 01:00:00 11,1 9,7 9,7 17,8 22,3 19,0 6 3 7 4 NW 1016,7 19 0 0,0
20.07.2018 00:00:00 12,2 10,3 10,5 18,9 22,8 19,0 6 3 8 5 NW 1016,8 21 0 0,0
19.07.2018 23:00:00 13,1 11,0 11,0 20,1 23,4 19,0 6 3 7 4 NW 1016,8 23 0 0,0
19.07.2018 22:00:00 14,5 10,7 12,7 21,7 23,8 19,0 4 2 11 6 NW 1016,8 28 0 0,0
19.07.2018 21:00:00 20,3 9,5 18,7 23,6 24,1 19,0 8 4 23 13 NNW 1016,5 40 58 0,0
19.07.2018 20:00:00 21,8 8,2 22,6 25,6 24,1 19,0 14 8 28 15 NNW 1016,2 33 60 0,0
19.07.2018 19:00:00 22,9 6,8 25,0 27,4 23,9 19,0 17 9 30 16 NW 1016,1 30 60 0,0
19.07.2018 18:00:00 24,2 8,9 27,4 28,6 23,5 19,0 15 8 34 18 NW 1015,9 26 60 0,0
19.07.2018 17:00:00 24,0 10,0 28,5 28,3 23,0 19,0 20 11 35 19 NW 1016,0 24 21 0,0
19.07.2018 16:00:00 23,6 10,5 26,9 28,0 22,5 19,0 16 9 43 23 NNW 1016,1 34 24 0,0
19.07.2018 15:00:00 22,7 9,3 25,1 25,8 22,2 19,0 18 10 31 17 NNW 1016,3 45 0 0,0
19.07.2018 14:00:00 21,8 8,6 23,8 24,8 21,8 19,0 17 9 35 19 NNW 1016,4 42 0 0,0
19.07.2018 13:00:00 21,0 10,9 24,1 25,3 21,4 19,0 20 11 35 19 NNW 1016,5 27 9 0,0
19.07.2018 12:00:00 20,2 14,4 23,0 22,7 21,2 18,9 17 9 29 16 NW 1016,5 22 1 0,0
19.07.2018 11:00:00 18,4 15,2 18,9 20,8 21,1 18,9 14 8 32 18 NW 1016,3 23 0 0,0
19.07.2018 10:00:00 18,0 16,3 18,4 20,7 21,1 18,9 14 8 29 16 NW 1016,2 17 0 0,0
19.07.2018 09:00:00 17,2 16,4 17,7 19,4 21,3 18,9 14 8 26 14 NW 1016,0 5 0 0,0
19.07.2018 08:00:00 17,0 16,2 17,1 19,2 21,5 18,9 12 6 27 15 NW 1015,9 6 0 0,2
19.07.2018 07:00:00 16,9 16,1 16,8 19,2 21,8 18,9 10 6 23 12 NW 1015,5 2,4 0 0,2
19.07.2018 06:00:00 16,7 15,9 16,6 19,3 22,1 18,9 12 6 23 12 NW 1015,3 3,6 0 1,0
19.07.2018 05:00:00 17,6 15,1 17,1 19,7 22,4 18,9 12 7 26 14 WNW 1015,1 7 0 0,0
19.07.2018 04:00:00 17,1 14,5 16,3 19,6 22,8 18,8 14 8 24 13 NW 1015,0 23 0 0,0
19.07.2018 03:00:00 17,5 14,0 16,5 20,1 23,2 18,8 14 8 29 16 NW 1015,1 32 0 0,0
19.07.2018 02:00:00 18,1 13,5 17,2 20,7 23,7 18,8 16 9 27 14 NW 1015,0 38 0 0,0
19.07.2018 01:00:00 18,9 13,0 17,9 21,4 24,2 18,8 18 10 30 16 NW 1015,0 41 0 0,0
19.07.2018 00:00:00 18,9 12,8 17,9 22,2 24,6 18,8 15 8 27 15 WNW 1015,1 36 0 0,0
18.07.2018 23:00:00 19,7 13,5 18,7 23,3 25,1 18,8 15 8 22 12 WNW 1014,8 26 0 0,0
18.07.2018 22:00:00 20,7 13,9 19,7 24,6 25,5 18,8 11 6 24 13 NW 1014,9 26 0 0,0
18.07.2018 21:00:00 22,2 13,3 21,7 26,3 25,8 18,8 14 8 29 16 NW 1014,5 30 44 0,0
18.07.2018 20:00:00 23,5 13,5 24,5 27,7 26,0 18,8 15 8 31 17 NW 1014,2 34 23 0,0
18.07.2018 19:00:00 24,0 13,6 25,7 29,4 26,0 18,8 16 9 32 18 NW 1013,9 25 44 0,0
18.07.2018 18:00:00 24,4 13,5 27,1 30,9 25,7 18,8 20 11 36 19 NNW 1013,7 19 50 0,0
18.07.2018 17:00:00 24,2 14,0 26,3 31,9 25,3 18,8 18 10 35 19 NW 1013,7 26 34 0,0
18.07.2018 16:00:00 24,7 14,0 29,8 32,0 24,7 18,7 18 10 34 19 NW 1013,6 19 43 0,0
18.07.2018 15:00:00 24,9 14,2 28,4 31,6 24,0 18,7 21 12 36 19 WNW 1013,5 21 46 0,0
18.07.2018 14:00:00 24,0 13,4 28,8 30,1 23,3 18,7 20 11 35 19 NW 1013,8 15 34 0,0
18.07.2018 13:00:00 23,8 13,9 28,7 29,8 22,5 18,7 18 10 33 18 NW 1013,8 17 54 0,0
18.07.2018 12:00:00 23,1 14,9 28,1 26,9 22,1 18,7 14 8 29 16 NW 1013,8 24 58 0,0
18.07.2018 11:00:00 20,3 14,9 22,6 22,5 22,0 18,7 18 10 28 15 WNW 1014,1 19 0 0,0
18.07.2018 10:00:00 19,5 16,5 20,8 22,2 22,0 18,6 13 7 28 15 NW 1013,7 8 0 0,0
18.07.2018 09:00:00 19,4 16,9 20,5 21,6 22,0 18,6 15 8 28 15 NW 1013,3 8 0 0,0
18.07.2018 08:00:00 18,8 16,5 19,3 20,7 22,2 18,6 15 8 27 15 NW 1013,1 13 0 0,0
18.07.2018 07:00:00 18,1 16,4 18,3 20,2 22,4 18,6 12 7 21 12 NNW 1012,7 16 0 0,0
18.07.2018 06:00:00 18,1 16,3 18,0 20,3 22,7 18,6 11 6 27 15 NW 1012,2 17 0 0,0
18.07.2018 05:00:00 18,4 16,2 18,2 20,6 23,1 18,5 10 5 21 11 NW 1012,0 16 0 0,0
18.07.2018 04:00:00 18,6 16,1 18,4 21,0 23,5 18,5 14 7 29 16 NNW 1011,9 16 0 0,0
18.07.2018 03:00:00 19,2 15,2 18,9 21,5 23,8 18,5 13 7 25 14 NNW 1011,7 16 0 0,0
18.07.2018 02:00:00 19,5 16,3 19,2 22,0 24,3 18,5 10 6 17 9 NW 1011,9 14 0 0,0
18.07.2018 01:00:00 19,4 16,4 19,1 22,5 24,7 18,4 10 6 16 9 NW 1011,9 13 0 0,0
18.07.2018 00:00:00 19,7 16,1 19,4 23,2 25,2 18,4 9 5 15 8 NW 1011,8 13 0 0,0
17.07.2018 23:00:00 19,8 16,3 19,3 24,0 25,7 18,4 8 4 12 7 NW 1011,6 14 0 0,0
17.07.2018 22:00:00 20,2 16,2 20,2 25,0 26,2 18,4 5 3 10 5 NW 1011,8 15 0 0,0
17.07.2018 21:00:00 20,5 16,1 20,9 26,2 26,7 18,4 6 4 18 10 N 1011,5 20 0 0,0
17.07.2018 20:00:00 21,0 16,0 21,6 27,5 27,2 18,4 11 6 17 9 NNE 1011,7 21 0 0,0
17.07.2018 19:00:00 21,7 16,2 22,5 29,2 27,5 18,4 8 4 23 13 NE 1011,7 18 0 0,0
17.07.2018 18:00:00 23,1 15,9 24,6 31,4 27,6 18,4 16 9 27 14 NNE 1011,4 19 0 0,0
17.07.2018 17:00:00 23,9 15,0 26,1 34,1 27,4 18,3 17 9 38 21 NE 1011,4 15 27 0,0
17.07.2018 16:00:00 25,4 14,3 29,3 34,7 27,0 18,3 16 9 33 18 NNE 1011,2 11 14 0,0
17.07.2018 15:00:00 25,3 13,2 29,7 35,1 26,4 18,3 19 10 31 17 N 1011,5 12 6 0,0
17.07.2018 14:00:00 25,2 14,6 29,5 36,5 25,3 18,3 19 10 31 17 N 1011,5 12 31 0,0
17.07.2018 13:00:00 25,7 13,9 32,2 36,1 24,1 18,3 14 7 30 16 NNW 1011,4 8 51 0,0
17.07.2018 12:00:00 25,3 13,9 30,9 33,7 23,0 18,2 14 8 24 13 N 1011,7 9 60 0,0
17.07.2018 11:00:00 24,1 14,3 29,7 30,4 22,2 18,2 16 9 24 13 N 1011,7 10 60 0,0
17.07.2018 10:00:00 23,0 13,8 27,0 26,4 21,6 18,2 16 9 27 15 N 1011,9 10 60 0,0
17.07.2018 09:00:00 21,7 14,0 25,0 22,7 21,5 18,2 9 5 16 8 NNW 1012,0 13 58 0,0

tt = Température de l'air
td = dewpoint
tt 5cm = Température de l'air 5cm
tt -5cm = Température de l'air -5cm
tt -20cm = Température de l'air -20cm
tt -100cm = Température de l'air -100cm
ff = Vitesse du vent
fx = gusts
dd = Direction du vent
ppp = reduced air pressure
vv = visibility
sd = Ensoleillement
rr = Quantités de précipitations

stations d'obs. à proximité